サイディング・スプリング彗星

487P/Siding Spring (2024)

English version
Home page
Updated on October 1, 2025

---------------------------------------------------------------------

・ プロフィール

符号 487P/2024 N5
検出日 2024年7月5日
検出光度 19.1等
検出者 Martin Masek (Pierre Auger Observatory at Malarguee, Mendoza, Argentina)

・ 写真集

・ 軌道要素

Epoch 2025 May 5.0 TT = JDT 2460800.5
T 2024 Oct. 20.60628 TT                                 Pike
q   1.8147970            (2000.0)            P               Q
n   0.08401011     Peri.    0.84719     +0.64462377     -0.59488296
a   5.1631533      Node    49.20542     +0.69763180     +0.20083599
e   0.6485100      Incl.   39.36618     +0.31268205     +0.77831817
P  11.7
From 1332 observations 2002 Feb. 13-2025 Feb. 25, mean residual 0".6.

・ 星図

・ 光度変化

        m1 = 8.3 + 5 logΔ + 25.0 log r(t - 45)

---------------------------------------------------------------------

軌道要素はM.P.E.C. 2025-D254に掲載されたものです。
星図はステラナビゲータ Ver.11 (アストロアーツ) で作成したものです。
光度グラフはComet for Windowsで作成したものです。

---------------------------------------------------------------------

Copyright(C) Seiichi Yoshida (comet@aerith.net). All rights reserved.